Bellefontaine, OH

6:14 AM EDT on September 20, 2017 (GMT -0400)
Bellefontaine

Weather History for KEDJ - December, 2013

Change the Weather History Date:

Monday, December 2, 2013

  Actual Average (KDLZ) Record (KDLZ)
Temperature  
Mean Temperature 34 °F -  
Max Temperature 41 °F 43 °F 67 °F (1970)
Min Temperature 28 °F 26 °F 4 °F (1966)
Degree Days  
Heating Degree Days 30    
Moisture  
Dew Point 32 °F    
Average Humidity 92    
Maximum Humidity 100    
Minimum Humidity 70    
Precipitation  
Precipitation 0.01 in - - ()
Sea Level Pressure  
Sea Level Pressure 29.85 in    
Wind  
Wind Speed 3 mph (NE)    
Max Wind Speed 9 mph    
Max Gust Speed -    
Visibility 4 miles    
Events      
Averages and records for this station are not official NWS values.
T = Trace of Precipitation, MM = Missing Value Source: NWS Daily Summary

Daily Weather History Graph

Daily Weather History Graph

Search for Another Location

Airport or City:

Trip Planner

Search our weather history database for the weather conditions in past years. The results will help you decide how hot, cold, wet, or windy it might be!

Date:

Astronomy

Dec. 02, 2013 Rise Set
Actual Time 7:40 AM EST 5:09 PM EST
Civil Twilight 7:09 AM EST 5:39 PM EST
Nautical Twilight 6:36 AM EST 6:13 PM EST
Astronomical Twilight 6:03 AM EST 6:46 PM EST
Moon 7:04 AM EST (12/2) 5:11 PM EST (12/2)
Length of Visible Light 10h 29m
Length of Day
9h 29m
Waning Crescent, 0% of the Moon is Illuminated
Dec 2
Waning Crescent
Dec 2
New
Dec 9
First Quarter
Dec 17
Full
Dec 25
Last Quarter

Hourly Weather History & Observations

Time (EST) Temp. Windchill Dew Point Humidity Pressure Visibility Wind Dir Wind Speed Gust Speed Precip Events Conditions
12:05 AM 28.4 °F - 28.4 °F 100% 29.93 in 2.0 mi Calm Calm - 0.00 in   Clear
12:25 AM 30.2 °F - 30.2 °F 100% 29.92 in 2.0 mi Calm Calm - 0.00 in   Clear
12:45 AM 28.4 °F - 28.4 °F 100% 29.92 in 2.5 mi Calm Calm - 0.00 in   Clear
1:05 AM 30.2 °F - 30.2 °F 100% 29.91 in 3.0 mi Calm Calm - 0.00 in   Clear
1:25 AM 28.4 °F - 28.4 °F 100% 29.91 in 4.0 mi Calm Calm - 0.00 in   Clear
1:45 AM 30.2 °F - 30.2 °F 100% 29.91 in 5.0 mi Calm Calm - 0.00 in   Clear
2:05 AM 28.4 °F - 28.4 °F 100% 29.91 in 5.0 mi Calm Calm - 0.00 in   Clear
2:25 AM 30.2 °F - 30.2 °F 100% 29.90 in 4.0 mi Calm Calm - 0.00 in   Clear
2:45 AM 32.0 °F 28.7 °F 32.0 °F 100% 29.90 in 5.0 mi ENE 3.5 mph - 0.00 in   Clear
3:05 AM 30.2 °F - 30.2 °F 100% 29.90 in 5.0 mi Calm Calm - 0.00 in   Clear
3:25 AM 30.2 °F - 30.2 °F 100% 29.90 in 5.0 mi Calm Calm - 0.00 in   Clear
3:45 AM - - - N/A% 29.90 in 4.0 mi Calm Calm - 0.00 in   Clear
4:05 AM 30.2 °F - 30.2 °F 100% 29.89 in 4.0 mi Calm Calm - 0.00 in   Clear
4:25 AM 30.2 °F - 30.2 °F 100% 29.88 in 4.0 mi Calm Calm - 0.00 in   Clear
4:45 AM - - - N/A% 29.88 in 3.0 mi North 4.6 mph - 0.00 in   Clear
5:05 AM 32.0 °F 28.7 °F 32.0 °F 100% 29.88 in 3.0 mi NNE 3.5 mph - 0.00 in   Clear
5:25 AM 32.0 °F - 32.0 °F 100% 29.88 in 3.0 mi Calm Calm - 0.00 in   Clear
5:45 AM 32.0 °F 26.4 °F 32.0 °F 100% 29.89 in 3.0 mi North 5.8 mph - 0.00 in   Clear
6:05 AM 32.0 °F - 32.0 °F 100% 29.89 in 3.0 mi Calm Calm - 0.00 in   Clear
6:25 AM 32.0 °F 28.7 °F 32.0 °F 100% 29.89 in 3.0 mi North 3.5 mph - 0.00 in   Clear
6:45 AM 32.0 °F 27.5 °F 32.0 °F 100% 29.89 in 3.0 mi NNE 4.6 mph - 0.00 in   Clear
7:05 AM 32.0 °F 25.6 °F 32.0 °F 100% 29.89 in 3.0 mi North 6.9 mph - 0.00 in   Clear
7:25 AM 32.0 °F 27.5 °F 32.0 °F 100% 29.89 in 2.5 mi North 4.6 mph - 0.00 in   Clear
7:45 AM 32.0 °F 25.6 °F 32.0 °F 100% 29.88 in 1.8 mi NE 6.9 mph - 0.00 in   Clear
8:05 AM 32.0 °F 26.4 °F 32.0 °F 100% 29.88 in 1.8 mi NE 5.8 mph - 0.00 in   Clear
8:25 AM 32.0 °F 26.4 °F 32.0 °F 100% 29.88 in 1.8 mi NE 5.8 mph - 0.00 in   Mostly Cloudy
8:45 AM 33.8 °F 28.6 °F 33.8 °F 100% 29.87 in 2.5 mi ENE 5.8 mph - 0.00 in   Mostly Cloudy
9:05 AM 33.8 °F 29.6 °F 33.8 °F 100% 29.88 in 3.0 mi East 4.6 mph - 0.00 in   Overcast
9:25 AM 33.8 °F - 33.8 °F 100% 29.88 in 4.0 mi Calm Calm - 0.00 in   Overcast
9:45 AM 33.8 °F 30.8 °F 33.8 °F 100% 29.87 in 3.0 mi NE 3.5 mph - 0.00 in   Scattered Clouds
10:05 AM 35.6 °F 31.7 °F 33.8 °F 93% 29.88 in 3.0 mi NNE 4.6 mph - 0.00 in   Clear
10:25 AM 35.6 °F 31.7 °F 33.8 °F 93% 29.88 in 4.0 mi NNE 4.6 mph - 0.00 in   Partly Cloudy
10:45 AM 35.6 °F 31.7 °F 33.8 °F 93% 29.87 in 4.0 mi ENE 4.6 mph - 0.00 in   Mostly Cloudy
11:05 AM 37.4 °F 33.8 °F 33.8 °F 87% 29.87 in 4.0 mi NE 4.6 mph - 0.00 in   Mostly Cloudy
11:25 AM 37.4 °F 32.8 °F 32.0 °F 81% 29.87 in 5.0 mi ENE 5.8 mph - 0.00 in   Scattered Clouds
11:45 AM 37.4 °F - 32.0 °F 81% 29.86 in 5.0 mi Calm Calm - 0.00 in   Partly Cloudy
12:05 PM 37.4 °F 32.1 °F 32.0 °F 81% 29.86 in 5.0 mi NE 6.9 mph - 0.00 in   Partly Cloudy
12:25 PM 37.4 °F 33.8 °F 32.0 °F 81% 29.85 in 5.0 mi ENE 4.6 mph - 0.00 in   Scattered Clouds
12:45 PM 39.2 °F 35.0 °F 32.0 °F 75% 29.84 in 5.0 mi ENE 5.8 mph - 0.00 in   Scattered Clouds
1:05 PM 39.2 °F 35.0 °F 32.0 °F 75% 29.83 in 5.0 mi NE 5.8 mph - 0.00 in   Partly Cloudy
1:25 PM 39.2 °F 35.9 °F 32.0 °F 75% 29.83 in 6.0 mi ENE 4.6 mph - 0.00 in   Partly Cloudy
1:45 PM 39.2 °F 35.0 °F 32.0 °F 75% 29.82 in 6.0 mi ENE 5.8 mph - 0.00 in   Partly Cloudy
2:05 PM 41.0 °F 37.1 °F 32.0 °F 70% 29.81 in 7.0 mi NNE 5.8 mph - 0.00 in   Partly Cloudy
2:25 PM 39.2 °F 35.9 °F 32.0 °F 75% 29.81 in 6.0 mi NE 4.6 mph - 0.00 in   Partly Cloudy
2:45 PM 41.0 °F 37.1 °F 32.0 °F 70% 29.81 in 5.0 mi NE 5.8 mph - 0.00 in   Clear
3:05 PM 41.0 °F 37.1 °F 32.0 °F 70% 29.80 in 5.0 mi NNE 5.8 mph - 0.00 in   Scattered Clouds
3:25 PM 39.2 °F 35.9 °F 32.0 °F 75% 29.80 in 5.0 mi ENE 4.6 mph - 0.00 in   Partly Cloudy
3:45 PM 39.2 °F 35.9 °F 32.0 °F 75% 29.80 in 5.0 mi ENE 4.6 mph - 0.00 in   Clear
4:05 PM 37.4 °F 30.8 °F 32.0 °F 81% 29.80 in 5.0 mi NE 9.2 mph - 0.00 in   Partly Cloudy
4:25 PM 35.6 °F 29.2 °F 32.0 °F 87% 29.81 in 5.0 mi NE 8.1 mph - 0.00 in   Clear
4:45 PM 35.6 °F 29.2 °F 32.0 °F 87% 29.81 in 5.0 mi ENE 8.1 mph - 0.00 in   Clear
5:05 PM 35.6 °F 30.7 °F 32.0 °F 87% 29.81 in 4.0 mi ENE 5.8 mph - 0.00 in   Clear
5:25 PM 33.8 °F 27.7 °F 32.0 °F 93% 29.81 in 5.0 mi ENE 6.9 mph - 0.00 in   Clear
5:45 PM 35.6 °F 30.7 °F 32.0 °F 87% 29.82 in 5.0 mi NE 5.8 mph - 0.00 in   Clear
6:05 PM 35.6 °F 30.7 °F 32.0 °F 87% 29.82 in 5.0 mi ENE 5.8 mph - 0.00 in   Clear
6:25 PM 35.6 °F 30.7 °F 32.0 °F 87% 29.82 in 6.0 mi NE 5.8 mph - 0.00 in   Clear
6:45 PM 35.6 °F 29.9 °F 32.0 °F 87% 29.82 in 7.0 mi ENE 6.9 mph - 0.00 in   Clear
7:05 PM 35.6 °F 29.9 °F 32.0 °F 87% 29.83 in 7.0 mi ENE 6.9 mph - 0.00 in   Scattered Clouds
7:25 PM 35.6 °F 29.9 °F 32.0 °F 87% 29.82 in 7.0 mi ENE 6.9 mph - 0.00 in   Partly Cloudy
7:45 PM 35.6 °F 31.7 °F 32.0 °F 87% 29.83 in 5.0 mi East 4.6 mph - 0.00 in   Mostly Cloudy
8:05 PM 35.6 °F 29.9 °F 32.0 °F 87% 29.83 in 5.0 mi ENE 6.9 mph - 0.00 in   Overcast
8:25 PM 35.6 °F 29.9 °F 33.8 °F 93% 29.82 in 5.0 mi ENE 6.9 mph - 0.00 in   Overcast
8:45 PM 33.8 °F 27.0 °F 33.8 °F 100% 29.82 in 5.0 mi ENE 8.1 mph - 0.00 in   Mostly Cloudy
9:05 PM 33.8 °F 27.7 °F 33.8 °F 100% 29.81 in 4.0 mi ENE 6.9 mph - 0.00 in   Overcast
9:25 PM 33.8 °F 28.6 °F 33.8 °F 100% 29.81 in 4.0 mi ENE 5.8 mph - 0.00 in   Overcast
9:45 PM 35.6 °F 30.7 °F 33.8 °F 93% 29.81 in 3.0 mi East 5.8 mph - 0.00 in   Overcast
10:05 PM 35.6 °F 29.9 °F 33.8 °F 93% 29.81 in 3.0 mi East 6.9 mph - 0.00 in   Overcast
10:25 PM 35.6 °F 31.7 °F 35.6 °F 100% 29.82 in 3.0 mi East 4.6 mph - 0.00 in   Overcast
10:45 PM 35.6 °F - 35.6 °F 100% 29.82 in 3.0 mi Calm Calm - 0.01 in   Overcast
11:05 PM 35.6 °F 32.8 °F 35.6 °F 100% 29.82 in 3.0 mi East 3.5 mph - 0.00 in   Scattered Clouds
11:25 PM 35.6 °F - 35.6 °F 100% 29.82 in 3.0 mi Calm Calm - 0.00 in   Scattered Clouds
11:45 PM 35.6 °F - 35.6 °F 100% 29.82 in 3.0 mi Calm Calm - 0.00 in   Scattered Clouds